Terug naar catalogus

STARLINK-30612

ActiefCommunicatieVLEO
NORAD 58106·PAYLOAD·🇺🇸 United States

Gelanceerd Oct 21, 2023 vanaf Vandenberg Space Force Base

Loading…

Volgende Passages (komende 24 uur)

TLE

VersSource: CelesTrak SupGP

Epoch: Sep 14, 2026, 20:45 UTC

1 58106C 23161K   26257.86506944 -.00007552  00000+0 -22321-3 0  2577
2 58106  53.1588 349.9856 0001194  93.1480 149.4970 15.34382246    19

Volg STARLINK-30612 in realtime met AllMySat

Download on the App Store